EW8599 Weather Reports


time (UTC)temp
C
wind
direction
speed
KPH
gust
KPH
rain 1hr
cm
rain 24hr
cm
rain mn
cm
humidity
%
barometer
mb
20260509150329 11 139 0.0 0.0 0.08 0.00 0.00 96 997.9
20260509150204 11 141 0.0 0.0 0.08 0.46 0.00 96 997.7
20260509145826 11 169 0.0 0.0 0.08 0.00 0.00 96 997.9
20260509145703 11 163 0.0 0.0 0.08 0.46 0.00 96 997.8
20260509145321 11 169 0.0 0.0 0.10 0.00 0.00 96 997.9
20260509145205 11 184 0.0 0.0 0.10 0.46 0.00 96 997.7
20260509144818 11 105 0.0 0.0 0.08 0.00 0.00 96 997.9
20260509144704 11 123 0.0 0.0 0.08 0.43 0.00 96 997.7
20260509144315 11 5 0.0 0.0 0.08 0.00 0.00 96 997.9
20260509144203 11 180 0.0 0.0 0.08 0.43 0.00 96 997.7
20260509143812 11 161 0.0 0.0 0.08 0.00 0.00 96 997.9
20260509143704 11 163 0.0 0.0 0.08 0.43 0.00 96 997.8
20260509143309 10 164 0.0 0.0 0.08 0.00 0.00 96 997.9
20260509143202 10 164 0.0 0.0 0.08 0.41 0.00 96 997.8
20260509142931 10 154 0.0 0.0 0.08 0.41 0.00 96 997.9
20260509142806 10 151 0.0 0.0 0.08 0.00 0.00 96 997.9
20260509142302 10 186 0.0 0.0 0.08 0.00 0.00 96 997.9
20260509142206 10 207 0.0 0.0 0.08 0.41 0.00 96 997.9
20260509141757 10 148 0.0 0.0 0.10 0.00 0.00 96 998.2
20260509141702 10 148 0.0 0.0 0.10 0.41 0.00 96 998.0
20260509141254 10 165 0.0 0.0 0.10 0.00 0.00 96 998.2
20260509141206 10 132 0.0 0.0 0.10 0.41 0.00 96 998.0
20260509140751 10 144 0.0 0.0 0.08 0.00 0.00 96 998.2
20260509140708 10 88 0.0 0.0 0.08 0.41 0.00 96 998.1
20260509140248 10 156 0.0 0.0 0.08 0.00 0.00 96 998.2
20260509140204 10 156 0.0 0.0 0.08 0.41 0.00 96 998.1
20260509135746 10 181 0.0 0.0 0.10 0.00 0.00 96 998.2
20260509135704 10 181 0.0 0.0 0.10 0.41 0.00 96 998.1
20260509135243 10 176 0.0 0.0 0.08 0.00 0.00 96 998.2
20260509135208 10 176 0.0 0.0 0.08 0.38 0.00 96 998.2
20260509134938 10 126 0.0 0.0 0.10 0.41 0.00 96 998.3
20260509134740 10 159 0.0 0.0 0.10 0.00 0.00 96 998.6
20260509134238 10 175 0.0 0.0 0.10 0.00 0.00 96 998.6
20260509134209 10 175 0.0 0.0 0.10 0.41 0.00 96 998.3
20260509133735 10 167 0.0 0.0 0.10 0.00 0.00 96 998.6
20260509133703 10 167 0.0 0.0 0.10 0.41 0.00 96 998.3
20260509133231 10 144 0.0 0.0 0.10 0.00 0.00 95 998.6
20260509133202 10 144 0.0 0.0 0.10 0.38 0.00 95 998.4
20260509132730 10 144 0.0 0.0 0.10 0.00 0.00 95 998.6
20260509132703 9 144 0.0 0.0 0.10 0.41 0.00 95 998.5
20260509132228 10 132 0.0 0.0 0.10 0.00 0.00 95 998.6
20260509132202 9 133 0.0 0.0 0.10 0.38 0.00 95 998.5
20260509131951 9 170 0.0 0.0 0.10 0.38 0.00 96 998.5
20260509131725 9 170 0.0 0.0 0.10 0.00 0.00 96 998.6
20260509131221 9 107 0.0 0.0 0.10 0.00 0.00 96 998.6
20260509131203 9 107 0.0 0.0 0.10 0.41 0.00 96 998.4
20260509130717 9 122 0.0 0.0 0.13 0.00 0.00 96 998.6
20260509130658 9 126 0.0 0.0 0.13 0.41 0.00 96 998.4
20260509130213 9 120 0.0 0.0 0.10 0.00 0.00 95 998.6
20260509130151 9 120 0.0 0.0 0.13 0.41 0.00 95 998.5
20260509125927 9 120 0.0 0.0 0.13 0.38 0.00 95 998.5
20260509125710 9 169 0.0 0.0 0.13 0.00 0.00 95 998.6
20260509125207 9 171 0.0 0.0 0.13 0.00 0.00 95 998.6
20260509125146 9 171 0.0 0.0 0.13 0.41 0.00 95 998.5
20260509124703 9 146 0.0 0.0 0.10 0.00 0.00 95 998.6
20260509124645 9 146 0.0 0.0 0.10 0.38 0.00 95 998.5
20260509124424 9 140 0.0 0.0 0.13 0.41 0.00 95 998.6
20260509124200 9 140 0.0 0.0 0.13 0.00 0.00 95 998.6
20260509123658 8 138 0.0 0.0 0.13 0.00 0.00 95 998.9
20260509123645 8 138 0.0 0.0 0.13 0.41 0.00 95 998.7
20260509123155 8 101 0.0 0.0 0.13 0.00 0.00 95 998.6
20260509123139 8 101 0.0 0.0 0.13 0.38 0.00 95 998.6
20260509122915 8 163 0.0 0.0 0.13 0.38 0.00 95 998.7
20260509122650 8 163 0.0 0.0 0.13 0.00 0.00 95 998.9
20260509122420 8 169 0.0 0.0 0.10 0.36 0.00 95 998.7
20260509122148 8 169 0.0 0.0 0.10 0.00 0.00 95 998.9
20260509121909 8 171 0.0 0.0 0.13 0.36 0.00 95 998.7
20260509121644 8 171 0.0 0.0 0.13 0.00 0.00 95 998.9
20260509121142 8 169 0.0 0.0 0.13 0.00 0.00 95 998.9
20260509121131 8 169 0.0 0.0 0.13 0.36 0.00 95 998.7
20260509120640 8 176 0.0 0.0 0.13 0.00 0.00 95 998.9
20260509120632 8 173 0.0 0.0 0.13 0.33 0.00 95 998.7
20260509120138 8 203 0.0 0.0 0.13 0.00 0.00 95 998.9
20260509120132 8 189 0.0 0.0 0.13 0.33 0.00 95 998.8
20260509115635 8 138 0.0 0.0 0.10 0.00 0.00 95 998.9
20260509115632 8 138 0.0 0.0 0.10 0.30 0.00 95 998.9
20260509115133 8 134 0.0 0.0 0.13 0.00 0.00 95 999.2
20260509114632 8 134 0.0 0.0 0.13 0.30 0.00 95 999.1
20260509114132 8 161 0.0 0.0 0.10 0.28 0.00 95 999.1
20260509114129 8 150 0.0 0.0 0.13 0.00 0.00 95 999.2
20260509113631 8 69 0.0 0.0 0.13 0.28 0.00 95 999.0
20260509113627 8 88 0.0 0.0 0.13 0.00 0.00 95 999.2
20260509113131 8 88 0.0 0.0 0.10 0.25 0.00 95 999.0
20260509113124 8 88 0.0 0.0 0.10 0.00 0.00 95 999.2
20260509112914 8 88 0.0 0.0 0.10 0.25 0.00 95 999.0
20260509112620 8 88 0.0 0.0 0.10 0.00 0.00 95 999.2
20260509112135 8 155 0.0 0.0 0.10 0.25 0.00 95 998.9
20260509112118 8 155 0.0 0.0 0.10 0.00 0.00 95 998.9
20260509111629 8 155 0.0 0.0 0.08 0.23 0.00 94 998.9
20260509111615 8 155 0.0 0.0 0.08 0.00 0.00 94 998.9
20260509111115 8 155 0.0 0.0 0.08 0.23 0.00 94 998.9
20260509111112 8 155 0.0 0.0 0.08 0.00 0.00 94 998.9
20260509110611 8 168 0.0 0.0 0.05 0.20 0.00 94 998.9
20260509110609 8 168 0.0 0.0 0.05 0.00 0.00 94 998.9
20260509110106 8 171 0.0 0.0 0.05 0.20 0.00 94 998.8
20260509105604 7 170 0.0 0.0 0.05 0.00 0.00 94 998.9
20260509105111 7 110 0.0 0.0 0.03 0.18 0.00 95 998.7
20260509105101 7 110 0.0 0.0 0.03 0.00 0.00 95 998.9
20260509104611 7 175 0.0 0.0 0.03 0.18 0.00 94 998.7
20260509104558 7 160 0.0 0.0 0.03 0.00 0.00 94 998.9
20260509104108 7 67 0.0 0.0 0.03 0.18 0.00 94 998.7
20260509104055 7 63 0.0 0.0 0.00 0.00 0.00 94 998.6
20260509103626 7 76 0.0 0.0 0.00 0.15 0.00 94 998.6
20260509103621 7 63 0.0 0.0 0.00 0.15 0.00 94 998.6
20260509103553 7 76 0.0 0.0 0.00 0.00 0.00 94 998.6
20260509103051 7 76 0.0 0.0 0.00 0.00 0.00 94 998.6
20260509102602 7 76 0.0 0.0 0.00 0.15 0.00 94 998.5
20260509102548 7 76 0.0 0.0 0.00 0.00 0.00 94 998.6
20260509102105 7 183 0.0 0.0 0.00 0.15 0.00 94 998.6
20260509102045 7 183 0.0 0.0 0.00 0.00 0.00 94 998.6
20260509101603 7 185 0.0 0.0 0.00 0.15 0.00 94 998.6
20260509101541 7 185 0.0 0.0 0.00 0.00 0.00 94 998.6
20260509101352 7 178 0.0 0.0 0.00 0.15 0.00 94 998.6
20260509101038 7 177 0.0 0.0 0.00 0.00 0.00 94 998.6
20260509100604 7 180 0.0 0.0 0.00 0.15 0.00 94 998.6
20260509100535 7 180 0.0 0.0 0.00 0.00 0.00 94 998.6
20260509100104 7 180 0.0 0.0 0.00 0.15 0.00 94 998.7
20260509100032 7 180 0.0 0.0 0.00 0.00 0.00 94 998.9
20260509095605 7 161 0.0 0.0 0.00 0.15 0.00 94 998.7
20260509095529 7 161 0.0 0.0 0.00 0.00 0.00 94 998.9
20260509095107 7 153 0.0 0.0 0.00 0.15 0.00 94 998.7
20260509095026 7 153 0.0 0.0 0.00 0.00 0.00 94 998.9
20260509094602 7 136 0.0 0.0 0.00 0.15 0.00 94 998.7
20260509094522 7 171 0.0 0.0 0.00 0.00 0.00 94 998.9
20260509094110 6 171 0.0 0.0 0.00 0.15 0.00 94 998.6
20260509094020 6 202 0.0 0.0 0.00 0.00 0.00 94 998.6
20260509093611 6 202 0.0 0.0 0.00 0.15 0.00 94 998.6
20260509093518 6 203 0.0 0.0 0.00 0.00 0.00 94 998.6
20260509093102 6 182 0.0 0.0 0.00 0.15 0.00 94 998.6
20260509093015 6 182 0.0 0.0 0.00 0.00 0.00 94 998.6
20260509092845 6 182 0.0 0.0 0.00 0.15 0.00 94 998.6
20260509092513 6 182 0.0 0.0 0.00 0.00 0.00 94 998.6
20260509092349 6 172 0.0 0.0 0.00 0.15 0.00 94 998.6
20260509092011 6 172 0.0 0.0 0.00 0.00 0.00 94 998.9
20260509091556 6 156 0.0 0.0 0.00 0.15 0.00 94 998.8
20260509091508 6 128 0.0 0.0 0.00 0.00 0.00 94 998.9
20260509091057 6 168 0.0 0.0 0.00 0.15 0.00 94 998.6
20260509091005 6 170 0.0 0.0 0.00 0.00 0.00 94 998.6
20260509090555 6 170 0.0 0.0 0.00 0.15 0.00 94 998.6
20260509090502 6 154 0.0 0.0 0.00 0.00 0.00 94 998.6
20260509090051 6 174 0.0 0.0 0.00 0.15 0.00 94 998.6
20260509090000 6 190 0.0 0.0 0.00 0.00 0.00 94 998.9
20260509085550 6 185 0.0 0.0 0.00 0.15 0.00 94 998.6
20260509085456 6 182 0.0 0.0 0.00 0.00 0.00 94 998.6
20260509085048 6 182 0.0 0.0 0.00 0.15 0.00 94 998.6
20260509084953 6 163 0.0 0.0 0.00 0.00 0.00 94 998.6
20260509084548 6 162 0.0 0.0 0.00 0.15 0.00 93 998.7
20260509084450 6 162 0.0 0.0 0.00 0.00 0.00 93 998.9
20260509084048 6 162 0.0 0.0 0.00 0.15 0.00 93 998.8
20260509083947 6 162 0.0 0.0 0.00 0.00 0.00 93 998.9
20260509083546 6 162 0.0 0.0 0.00 0.15 0.00 93 998.9
20260509083444 6 162 0.0 0.0 0.00 0.00 0.00 93 999.2
20260509083044 6 162 0.0 0.0 0.00 0.15 0.00 93 999.0
20260509082941 6 162 0.0 0.0 0.00 0.00 0.00 93 999.2
20260509082545 6 162 0.0 0.0 0.00 0.15 0.00 93 999.0
20260509082438 6 162 0.0 0.0 0.00 0.00 0.00 93 998.9
20260509082039 6 162 0.0 0.0 0.00 0.15 0.00 93 998.8
20260509081935 6 162 0.0 0.0 0.00 0.00 0.00 93 998.9
20260509081542 6 162 0.0 0.0 0.00 0.15 0.00 93 998.9
20260509081432 6 162 0.0 0.0 0.00 0.00 0.00 93 998.9
20260509081038 6 162 0.0 0.0 0.00 0.15 0.00 93 998.6
20260509080929 6 162 0.0 0.0 0.00 0.00 0.00 93 998.9
20260509080813 6 162 0.0 0.0 0.00 0.15 0.00 93 998.8
20260509080427 6 162 0.0 0.0 0.00 0.00 0.00 93 999.2
20260509080037 6 162 0.0 0.0 0.00 0.15 0.00 93 999.1
20260509075925 6 162 0.0 0.0 0.00 0.00 0.00 93 999.2
20260509075536 6 162 0.0 0.0 0.00 0.15 0.00 93 999.1
20260509075422 6 162 0.0 0.0 0.00 0.00 0.00 93 999.2
20260509075314 6 162 0.0 0.0 0.00 0.15 0.00 93 999.2
20260509074920 6 162 0.0 0.0 0.00 0.00 0.00 93 999.2
20260509074531 6 162 0.0 0.0 0.00 0.15 0.00 93 999.2
20260509074417 5 162 0.0 0.0 0.00 0.00 0.00 93 999.2
20260509074026 5 162 0.0 0.0 0.00 0.15 0.00 93 999.2
20260509073913 5 162 0.0 0.0 0.00 0.00 0.00 93 999.2
20260509073522 5 162 0.0 0.0 0.00 0.15 0.00 93 999.3
20260509073410 5 162 0.0 0.0 0.00 0.00 0.00 93 999.2
20260509073301 5 162 0.0 0.0 0.00 0.15 0.00 93 999.2
20260509072906 5 162 0.0 0.0 0.00 0.00 0.00 93 999.2
20260509072518 5 162 0.0 0.0 0.00 0.15 0.00 93 999.2
20260509072403 5 162 0.0 0.0 0.00 0.00 0.00 93 999.2
20260509072015 5 162 0.0 0.0 0.00 0.15 0.00 93 999.3
20260509071859 5 162 0.0 0.0 0.00 0.00 0.00 93 999.2
20260509071513 5 162 0.0 0.0 0.00 0.15 0.00 93 999.3
20260509071357 5 162 0.0 0.0 0.00 0.00 0.00 93 999.2
20260509071012 5 162 0.0 0.0 0.00 0.15 0.00 93 999.4
20260509070854 5 162 0.0 0.0 0.00 0.00 0.00 93 999.7
20260509070510 5 162 0.0 0.0 0.00 0.15 0.00 93 999.4
20260509070351 5 162 0.0 0.0 0.00 0.00 0.00 93 999.7
20260509070012 5 162 0.0 0.0 0.00 0.15 0.00 93 999.5
20260509065846 5 162 0.0 0.0 0.00 0.00 0.00 93 999.7
20260509065512 5 162 0.0 0.0 0.00 0.15 0.00 93 999.4
20260509065343 5 163 0.0 0.0 0.00 0.00 0.00 93 999.7
20260509065009 5 186 0.0 0.0 0.00 0.15 0.00 93 999.5
20260509064839 5 159 0.0 0.0 0.00 0.00 0.00 93 999.7
20260509064509 5 159 0.0 0.0 0.00 0.15 0.00 93 999.5
20260509064337 5 157 0.0 0.0 0.00 0.00 0.00 93 999.7
20260509064010 5 186 0.0 0.0 0.00 0.15 0.00 93 999.5
20260509063834 5 279 0.0 0.0 0.00 0.00 0.00 93 999.7
20260509063510 5 279 0.0 0.0 0.00 0.15 0.00 93 999.6
20260509063330 5 279 0.0 0.0 0.00 0.00 0.00 93 999.7
20260509063009 5 279 0.0 0.0 0.00 0.15 0.00 93 999.7
20260509062828 5 279 0.0 0.0 0.00 0.00 0.00 93 1000.0
20260509062508 4 279 0.0 0.0 0.00 0.15 0.00 93 999.7
20260509062325 4 279 0.0 0.0 0.00 0.00 0.00 93 1000.0
20260509062007 4 279 0.0 0.0 0.00 0.15 0.00 93 999.8
20260509061822 4 279 0.0 0.0 0.00 0.00 0.00 93 1000.0
20260509061507 4 279 0.0 0.0 0.00 0.15 0.00 93 999.8
20260509061320 4 279 0.0 0.0 0.00 0.00 0.00 93 1000.0
20260509061245 4 279 0.0 0.0 0.00 0.15 0.00 93 999.8
20260509060816 4 279 0.0 0.0 0.00 0.00 0.00 93 1000.0
20260509060512 4 279 0.0 0.0 0.00 0.15 0.00 92 1000.0
20260509060313 4 279 0.0 0.0 0.00 0.00 0.00 92 1000.4
20260509060008 4 279 0.0 0.0 0.00 0.15 0.00 92 1000.2
20260509055809 4 279 0.0 0.0 0.00 0.00 0.00 92 1000.4
20260509055510 4 279 0.0 0.0 0.00 0.15 0.00 92 1000.2
20260509055306 4 279 0.0 0.0 0.00 0.00 0.00 92 1000.4
20260509055009 4 279 0.0 0.0 0.00 0.15 0.00 92 1000.2
20260509054802 3 279 0.0 0.0 0.00 0.00 0.00 92 1000.4
20260509054532 3 279 0.0 0.0 0.00 0.15 0.00 92 1000.3
20260509054526 3 279 0.0 0.0 0.00 0.15 0.00 92 1000.2
20260509054258 3 279 0.0 0.0 0.00 0.00 0.00 92 1000.4
20260509053757 3 279 0.0 0.0 0.00 0.00 0.00 92 1000.4
20260509053505 3 279 0.0 0.0 0.00 0.15 0.00 92 1000.3
20260509053253 3 279 0.0 0.0 0.00 0.00 0.00 92 1000.4
20260509053005 3 279 0.0 0.0 0.00 0.15 0.00 92 1000.4
20260509052751 3 279 0.0 0.0 0.00 0.00 0.00 91 1000.4
20260509052747 3 279 0.0 0.0 0.00 0.15 0.00 91 1000.3
20260509052249 3 279 0.0 0.0 0.00 0.00 0.00 91 1000.4
20260509052006 3 279 0.0 0.0 0.00 0.15 0.00 91 1000.4
20260509051746 3 279 0.0 0.0 0.00 0.00 0.00 91 1000.4
20260509051505 3 279 0.0 0.0 0.00 0.15 0.00 91 1000.3
20260509051244 3 279 0.0 0.0 0.00 0.00 0.00 91 1000.4
20260509051005 3 279 0.0 0.0 0.00 0.15 0.00 91 1000.3
20260509050740 3 279 0.0 0.0 0.00 0.00 0.00 91 1000.4
20260509050738 3 279 0.0 0.0 0.00 0.15 0.00 90 1000.3
20260509050237 3 279 0.0 0.0 0.00 0.00 0.00 90 1000.4
20260509050011 3 279 0.0 0.0 0.00 0.15 0.00 90 1000.3
20260509045735 3 279 0.0 0.0 0.00 0.00 0.00 90 1000.4
20260509045506 3 279 0.0 0.0 0.00 0.15 0.00 90 1000.4
20260509045231 3 279 0.0 0.0 0.00 0.00 0.00 90 1000.4
20260509045005 3 279 0.0 0.0 0.00 0.15 0.00 89 1000.5
20260509044729 3 279 0.0 0.0 0.00 0.00 0.00 89 1000.7
20260509044506 3 279 0.0 0.0 0.00 0.15 0.00 89 1000.5
20260509044226 3 279 0.0 0.0 0.00 0.00 0.00 89 1000.7
20260509044005 3 279 0.0 0.0 0.00 0.15 0.00 89 1000.5
20260509043722 3 279 0.0 0.0 0.00 0.00 0.00 89 1000.7
20260509043505 3 279 0.0 0.0 0.00 0.15 0.00 89 1000.5
20260509043218 3 279 0.0 0.0 0.00 0.00 0.00 88 1000.7
20260509043006 3 279 0.0 0.0 0.00 0.15 0.00 88 1000.5
20260509042715 3 279 0.0 0.0 0.00 0.00 0.00 88 1000.4
20260509042505 3 279 0.0 0.0 0.00 0.15 0.00 88 1000.4
20260509042239 3 279 0.0 0.0 0.00 0.15 0.00 88 1000.3
20260509042211 3 279 0.0 0.0 0.00 0.00 0.00 88 1000.4
20260509041708 3 279 0.0 0.0 0.00 0.00 0.00 88 1000.4
20260509041503 3 279 0.0 0.0 0.00 0.15 0.00 88 1000.3
20260509041205 3 279 0.0 0.0 0.00 0.00 0.00 88 1000.4
20260509041002 3 279 0.0 0.0 0.00 0.15 0.00 88 1000.4
20260509040751 3 279 0.0 0.0 0.00 0.15 0.00 88 1000.5
20260509040704 3 279 0.0 0.0 0.00 0.00 0.00 88 1000.7
20260509040200 3 279 0.0 0.0 0.00 0.00 0.00 88 1000.7
20260509035956 3 279 0.0 0.0 0.00 0.15 0.00 87 1000.6
20260509035657 3 279 0.0 0.0 0.00 0.00 0.00 87 1000.7
20260509035452 3 279 0.0 0.0 0.00 0.15 0.00 87 1000.7
20260509035153 3 279 0.0 0.0 0.00 0.00 0.00 87 1000.7
20260509034954 3 279 0.0 0.0 0.00 0.15 0.00 87 1000.7
20260509034651 3 279 0.0 0.0 0.00 0.00 0.00 87 1000.7
20260509034453 3 279 0.0 0.0 0.00 0.15 0.00 87 1000.7
20260509034148 3 279 0.0 0.0 0.00 0.00 0.00 86 1000.7
20260509033952 3 279 0.0 0.0 0.00 0.15 0.00 86 1000.6
20260509033645 3 279 0.0 0.0 0.00 0.00 0.00 86 1000.7
20260509033453 3 279 0.0 0.0 0.00 0.15 0.00 86 1000.6
20260509033142 4 279 0.0 0.0 0.00 0.00 0.00 86 1000.7
20260509032952 4 279 0.0 0.0 0.00 0.15 0.00 86 1000.7
20260509032639 4 279 0.0 0.0 0.00 0.00 0.00 86 1000.7
20260509032452 4 279 0.0 0.0 0.00 0.15 0.00 86 1000.7
20260509032136 4 279 0.0 0.0 0.00 0.00 0.00 85 1001.0
20260509031954 4 279 0.0 0.0 0.00 0.15 0.00 85 1000.8
20260509031634 4 279 0.0 0.0 0.00 0.00 0.00 85 1001.0
20260509031452 4 279 0.0 0.0 0.00 0.15 0.00 85 1000.7
20260509031131 4 279 0.0 0.0 0.00 0.00 0.00 85 1000.7
20260509030947 4 279 0.0 0.0 0.00 0.15 0.00 85 1000.7
20260509030629 5 279 0.0 1.6 0.00 0.00 0.00 85 1000.7
20260509030448 5 279 0.0 1.6 0.00 0.15 0.00 85 1000.8
20260509030126 5 279 0.0 1.6 0.00 0.00 0.00 84 1000.7
20260509025948 5 279 0.0 1.6 0.00 0.15 0.00 84 1000.7
20260509025622 5 279 0.0 1.6 0.00 0.00 0.00 84 1000.7
20260509025447 5 279 0.0 1.6 0.00 0.15 0.00 84 1000.7
20260509025118 5 279 0.0 0.0 0.00 0.00 0.00 84 1000.7
20260509024950 5 279 0.0 0.0 0.00 0.15 0.00 84 1000.7
20260509024613 5 279 0.0 1.6 0.00 0.00 0.00 84 1001.0
20260509024447 5 279 0.0 1.6 0.00 0.15 0.00 83 1000.8
20260509024110 5 279 0.0 1.6 0.00 0.00 0.00 83 1001.0
20260509023948 5 279 0.0 1.6 0.00 0.15 0.00 83 1000.9
20260509023608 5 279 0.0 1.6 0.00 0.00 0.00 83 1001.0
20260509023448 5 279 0.0 1.6 0.00 0.15 0.00 83 1000.9
20260509023104 6 279 0.0 1.6 0.00 0.00 0.00 83 1001.0
20260509022948 6 279 0.0 1.6 0.00 0.15 0.00 83 1001.0
20260509022600 6 279 0.0 0.0 0.00 0.00 0.00 83 1001.0
20260509022444 6 279 0.0 0.0 0.00 0.15 0.00 83 1001.0
20260509022220 6 279 0.0 0.0 0.00 0.15 0.00 83 1000.9
20260509022059 6 279 0.0 0.0 0.00 0.00 0.00 83 1001.0
20260509021555 6 279 0.0 0.0 0.00 0.00 0.00 83 1001.0
20260509021443 6 279 0.0 0.0 0.00 0.15 0.00 83 1001.0
20260509021053 6 279 0.0 0.0 0.00 0.00 0.00 83 1001.0
20260509020946 6 279 0.0 0.0 0.00 0.15 0.00 83 1000.8
20260509020551 6 279 0.0 0.0 0.00 0.00 0.00 83 1001.0
20260509020445 6 279 0.0 0.0 0.00 0.15 0.00 83 1000.8
20260509020047 6 279 0.0 0.0 0.00 0.00 0.00 84 1001.0
20260509015943 6 279 0.0 0.0 0.00 0.15 0.00 84 1000.9
20260509015547 6 279 0.0 0.0 0.00 0.00 0.00 84 1001.0
20260509015443 6 279 0.0 0.0 0.00 0.15 0.00 84 1000.8
20260509015216 6 279 0.0 0.0 0.00 0.15 0.00 84 1000.8
20260509015043 6 279 0.0 0.0 0.00 0.00 0.00 84 1000.7
20260509014540 6 279 0.0 0.0 0.00 0.00 0.00 84 1001.0
20260509014437 6 279 0.0 0.0 0.00 0.15 0.00 84 1000.8
20260509014036 7 279 0.0 0.0 0.00 0.00 0.00 84 1000.7
20260509013935 7 279 0.0 0.0 0.00 0.15 0.00 84 1000.7
20260509013533 7 279 0.0 0.0 0.00 0.00 0.00 83 1001.0
20260509013431 7 279 0.0 0.0 0.00 0.15 0.00 83 1000.8
20260509013029 7 279 0.0 0.0 0.00 0.00 0.00 83 1001.0
20260509012934 7 279 0.0 0.0 0.00 0.15 0.00 83 1000.8
20260509012526 7 279 0.0 0.0 0.00 0.00 0.00 82 1000.7
20260509012430 7 279 0.0 0.0 0.00 0.15 0.00 82 1000.6
20260509012022 7 279 0.0 0.0 0.00 0.00 0.00 82 1000.7
20260509011928 7 279 0.0 0.0 0.00 0.15 0.00 82 1000.5
20260509011520 7 279 0.0 0.0 0.00 0.00 0.00 82 1000.7
20260509011426 7 279 0.0 0.0 0.00 0.15 0.00 81 1000.4
20260509011017 7 279 0.0 0.0 0.00 0.00 0.00 80 1000.4
20260509010918 7 279 0.0 0.0 0.00 0.15 0.00 80 1000.3
20260509010641 7 279 0.0 0.0 0.00 0.15 0.00 79 1000.3
20260509010515 7 279 0.0 0.0 0.00 0.00 0.00 79 1000.4
20260509010140 7 279 0.0 0.0 0.00 0.15 0.00 78 1000.3
20260509010012 7 279 0.0 0.0 0.00 0.00 0.00 78 1000.4
20260509005510 7 279 0.0 0.0 0.00 0.00 0.00 78 1000.4
20260509005411 7 279 0.0 0.0 0.00 0.15 0.00 78 1000.0
20260509005009 7 279 0.0 0.0 0.00 0.00 0.00 77 1000.4
20260509004906 7 279 0.0 0.0 0.00 0.15 0.00 77 1000.2
20260509004507 7 279 0.0 0.0 0.00 0.00 0.00 76 1000.4
20260509004405 7 279 0.0 0.0 0.00 0.15 0.00 76 1000.0
20260509004004 8 279 0.0 0.0 0.00 0.00 0.00 75 1000.0
20260509003904 8 279 0.0 0.0 0.00 0.15 0.00 75 999.8
20260509003647 8 279 0.0 0.0 0.00 0.15 0.00 75 999.8
20260509003502 8 279 0.0 0.0 0.00 0.00 0.00 75 1000.0
20260509003140 8 279 0.0 0.0 0.00 0.15 0.00 75 999.8
20260509002959 8 279 0.0 0.0 0.00 0.00 0.00 75 1000.0
20260509002456 8 279 0.0 0.0 0.00 0.00 0.00 75 1000.0
20260509002403 8 279 0.0 0.0 0.00 0.15 0.00 75 999.8
20260509001953 8 279 0.0 0.0 0.00 0.00 0.00 74 1000.0
20260509001908 8 279 0.0 0.0 0.00 0.15 0.00 74 999.7
20260509001450 9 279 0.0 0.0 0.00 0.00 0.00 73 1000.0
20260509001408 9 279 0.0 0.0 0.00 0.15 0.00 73 999.7
20260509000946 9 279 0.0 0.0 0.00 0.00 0.00 72 1000.0
20260509000904 9 279 0.0 0.0 0.00 0.15 0.00 72 999.7
20260509000447 10 279 0.0 0.0 0.00 0.00 0.00 72 999.7
20260509000407 9 279 0.0 0.0 0.00 0.15 0.00 72 999.6
20260508235940 10 279 0.0 0.0 0.00 0.00 0.00 71 999.7
20260508235902 10 279 0.0 0.0 0.00 0.15 0.00 71 999.6
20260508235439 10 279 0.0 0.0 0.00 0.00 0.00 70 999.7
20260508235404 10 279 0.0 0.0 0.00 0.15 0.00 70 999.5
20260508234935 10 279 0.0 0.0 0.00 0.00 0.00 70 999.7
20260508234903 10 279 0.0 0.0 0.00 0.15 0.00 70 999.4
20260508234431 10 279 0.0 0.0 0.00 0.00 0.00 69 999.7
20260508234403 10 279 0.0 0.0 0.00 0.15 0.00 69 999.4
20260508233929 10 279 0.0 0.0 0.00 0.00 0.00 67 999.7
20260508233859 10 279 0.0 0.0 0.00 0.15 0.00 67 999.4
20260508233626 10 279 0.0 0.0 0.00 0.15 0.00 66 999.3
20260508233429 10 279 0.0 1.6 0.00 0.00 0.00 66 999.7
20260508232925 11 279 0.0 1.6 0.00 0.00 0.00 64 999.2
20260508232844 11 279 0.0 1.6 0.00 0.15 0.00 64 999.3
20260508232422 11 279 0.0 0.0 0.00 0.00 0.00 64 999.2
20260508232340 11 279 0.0 0.0 0.00 0.15 0.00 64 999.3
20260508232110 11 279 0.0 0.0 0.00 0.15 0.00 63 999.2
20260508231919 11 279 0.0 0.0 0.00 0.00 0.00 62 999.2
20260508231416 11 279 0.0 0.0 0.00 0.00 0.00 61 999.2
20260508231335 11 279 0.0 0.0 0.00 0.15 0.00 61 999.2
20260508230913 12 279 0.0 0.0 0.00 0.00 0.00 60 999.2
20260508230835 12 279 0.0 0.0 0.00 0.15 0.00 60 999.3
20260508230620 12 279 0.0 1.6 0.00 0.15 0.00 60 999.2
20260508230410 12 279 0.0 1.6 0.00 0.00 0.00 60 999.2
20260508225907 12 279 0.0 3.2 0.00 0.00 0.00 59 999.2
20260508225836 12 279 0.0 3.2 0.00 0.15 0.00 59 999.2
20260508225403 12 279 0.0 3.2 0.00 0.00 0.00 59 999.2
20260508225337 12 279 0.0 3.2 0.00 0.15 0.00 59 999.2
20260508224901 12 279 0.0 1.6 0.00 0.00 0.00 59 999.2
20260508224842 12 279 0.0 1.6 0.00 0.15 0.00 59 999.2
20260508224359 13 279 0.0 1.6 0.00 0.00 0.00 59 999.2
20260508224338 13 279 0.0 1.6 0.00 0.15 0.00 59 999.3
20260508223856 13 279 0.0 6.4 0.00 0.00 0.00 58 999.2
20260508223844 13 279 0.0 6.4 0.00 0.15 0.00 58 999.3
20260508223353 13 279 0.0 6.4 0.00 0.00 0.00 56 999.2
20260508223331 13 279 0.0 6.4 0.00 0.15 0.00 56 999.3
20260508222851 13 225 0.0 6.4 0.00 0.00 0.00 57 999.2
20260508222831 13 225 0.0 6.4 0.00 0.15 0.00 57 999.2
20260508222348 13 200 0.0 3.2 0.00 0.00 0.00 55 999.2
20260508222334 13 200 0.0 3.2 0.00 0.15 0.00 55 999.2
20260508222109 13 200 0.0 3.2 0.00 0.15 0.00 54 999.2
20260508221844 14 200 0.0 3.2 0.00 0.00 0.00 54 999.2
20260508221340 14 200 0.0 3.2 0.00 0.00 0.00 52 999.2
20260508221334 14 200 1.6 3.2 0.00 0.15 0.00 51 999.2
20260508220836 14 200 1.6 11.3 0.00 0.00 0.00 50 999.2
20260508220831 14 200 1.6 6.4 0.00 0.15 0.00 51 999.2
20260508220333 14 267 0.0 11.3 0.00 0.00 0.00 53 999.2
20260508220331 14 267 0.0 11.3 0.00 0.15 0.00 53 999.2
20260508215833 14 255 0.0 11.3 0.00 0.15 0.00 52 999.2
20260508215830 14 252 0.0 4.8 0.00 0.00 0.00 51 999.2
20260508215330 14 54 0.0 4.8 0.00 0.15 0.00 52 999.3
20260508215326 14 60 1.6 4.8 0.00 0.00 0.00 50 999.2
20260508214826 14 288 0.0 4.8 0.00 0.15 0.00 52 999.3
20260508214823 14 288 0.0 4.8 0.00 0.00 0.00 52 999.2
20260508214322 14 288 1.6 4.8 0.00 0.15 0.00 53 999.4
20260508214320 14 292 1.6 4.8 0.00 0.00 0.00 53 999.7
20260508213822 14 70 1.6 6.4 0.00 0.15 0.00 50 999.3
20260508213817 14 70 1.6 6.4 0.00 0.00 0.00 50 999.2
20260508213322 14 71 1.6 6.4 0.00 0.15 0.00 48 999.3
20260508213314 15 71 1.6 6.4 0.00 0.00 0.00 49 999.2
20260508212827 15 55 1.6 4.8 0.00 0.15 0.00 53 999.4
20260508212810 15 56 1.6 4.8 0.00 0.00 0.00 53 999.7
20260508212558 15 32 0.0 4.8 0.00 0.15 0.00 51 999.4
20260508212306 15 31 0.0 4.8 0.00 0.00 0.00 52 999.2
20260508211821 14 69 0.0 4.8 0.00 0.15 0.00 52 999.4
20260508211802 15 69 0.0 4.8 0.00 0.00 0.00 52 999.7
20260508211318 14 72 0.0 4.8 0.00 0.15 0.00 52 999.4
20260508211258 15 55 0.0 3.2 0.00 0.00 0.00 51 999.7
20260508211050 14 56 1.6 4.8 0.00 0.15 0.00 50 999.4
20260508210756 14 57 1.6 6.4 0.00 0.00 0.00 50 999.2
20260508210315 14 57 1.6 6.4 0.00 0.15 0.00 49 999.3
20260508210252 14 57 1.6 6.4 0.00 0.00 0.00 49 999.2
20260508210104 14 53 0.0 6.4 0.00 0.15 0.00 51 999.3
20260508205749 15 53 0.0 6.4 0.00 0.00 0.00 50 999.2
20260508205315 14 63 0.0 4.8 0.00 0.15 0.00 46 999.5
20260508205245 15 63 0.0 4.8 0.00 0.00 0.00 48 999.7
20260508204812 15 332 0.0 4.8 0.00 0.15 0.00 48 999.5
20260508204742 15 331 0.0 4.8 0.00 0.00 0.00 48 999.7
20260508204311 15 348 1.6 8.0 0.00 0.15 0.00 46 999.5
20260508204238 15 348 1.6 8.0 0.00 0.00 0.00 45 999.7
20260508203807 15 320 1.6 14.5 0.00 0.15 0.00 47 999.5
20260508203734 15 316 1.6 14.5 0.00 0.00 0.00 45 999.7
20260508203306 15 272 3.2 14.5 0.00 0.15 0.00 47 999.5
20260508203231 15 274 3.2 14.5 0.00 0.00 0.00 47 999.7
20260508202805 15 56 1.6 14.5 0.00 0.15 0.00 48 999.5
20260508202727 15 57 1.6 14.5 0.00 0.00 0.00 48 999.7
20260508202308 15 69 1.6 14.5 0.00 0.15 0.00 47 999.5
20260508202224 15 46 1.6 8.0 0.00 0.00 0.00 45 999.7
20260508201807 16 54 1.6 6.4 0.00 0.15 0.00 46 999.6
20260508201721 16 342 1.6 6.4 0.00 0.00 0.00 49 999.7
20260508201547 15 15 1.6 9.7 0.00 0.15 0.00 45 999.6
20260508201218 15 15 1.6 9.7 0.00 0.00 0.00 46 1000.0
20260508200813 15 252 3.2 11.3 0.00 0.15 0.00 46 999.7
20260508200715 15 252 3.2 11.3 0.00 0.00 0.00 46 1000.0
20260508200311 15 268 3.2 14.5 0.00 0.15 0.00 47 999.8
20260508200211 15 268 3.2 14.5 0.00 0.00 0.00 48 1000.0
20260508195803 15 278 3.2 14.5 0.00 0.15 0.00 44 999.8
20260508195707 16 311 3.2 14.5 0.00 0.00 0.00 43 1000.0
20260508195543 16 287 1.6 6.4 0.00 0.15 0.00 45 1000.0
20260508195204 16 288 1.6 6.4 0.00 0.00 0.00 44 1000.4
20260508194803 16 283 0.0 6.4 0.00 0.15 0.00 45 1000.0
20260508194700 16 266 0.0 1.6 0.00 0.00 0.00 46 1000.4
20260508194304 16 309 0.0 1.6 0.00 0.15 0.00 47 1000.0
20260508194157 16 294 0.0 1.6 0.00 0.00 0.00 44 1000.4
20260508193804 16 94 0.0 4.8 0.00 0.15 0.00 48 1000.2
20260508193654 16 215 0.0 4.8 0.00 0.00 0.00 49 1000.4
20260508193304 16 205 0.0 4.8 0.00 0.15 0.00 45 1000.3
20260508193151 16 46 0.0 4.8 0.00 0.00 0.00 47 1000.4
20260508193044 16 249 0.0 0.0 0.00 0.15 0.00 46 1000.4
20260508192647 16 0 0.0 0.0 0.00 0.00 0.00 47 1000.4
20260508192306 16 337 0.0 0.0 0.00 0.15 0.00 50 1000.3
20260508192145 16 306 0.0 0.0 0.00 0.00 0.00 51 1000.4
20260508191804 15 114 0.0 0.0 0.00 0.15 0.00 48 1000.3
20260508191642 15 287 0.0 0.0 0.00 0.00 0.00 52 1000.4
20260508191303 15 26 0.0 0.0 0.00 0.15 0.00 53 1000.5
20260508191138 15 50 0.0 0.0 0.00 0.00 0.00 49 1000.7
20260508190803 15 263 0.0 0.0 0.00 0.15 0.00 52 1000.6
20260508190636 15 73 0.0 0.0 0.00 0.00 0.00 52 1000.7
20260508190550 15 282 0.0 0.0 0.00 0.15 0.00 49 1000.6
20260508190132 15 234 0.0 0.0 0.00 0.00 0.00 50 1000.7
20260508185804 15 255 0.0 0.0 0.00 0.15 0.00 49 1000.6
20260508185629 15 288 0.0 0.0 0.00 0.00 0.00 51 1000.7
20260508185550 15 313 0.0 0.0 0.00 0.15 0.00 55 1000.7
20260508185126 15 19 0.0 0.0 0.00 0.00 0.00 58 1000.7
20260508184809 15 51 0.0 0.0 0.00 0.15 0.00 53 1000.6
20260508184624 15 169 0.0 0.0 0.00 0.00 0.00 54 1001.0
20260508184311 14 99 0.0 0.0 0.00 0.15 0.00 52 1000.9
20260508184121 14 250 0.0 0.0 0.00 0.00 0.00 55 1001.0
20260508183812 14 297 0.0 0.0 0.00 0.15 0.00 57 1000.9
20260508183617 14 20 0.0 0.0 0.00 0.00 0.00 59 1001.0
20260508183310 13 126 0.0 0.0 0.00 0.15 0.00 55 1000.9
20260508183113 13 245 0.0 0.0 0.00 0.00 0.00 55 1001.0
20260508183044 13 302 0.0 0.0 0.00 0.15 0.00 56 1001.0
20260508182609 13 321 0.0 0.0 0.00 0.00 0.00 58 1001.0
20260508182309 13 46 0.0 0.0 0.00 0.15 0.00 61 1001.1
20260508182106 13 355 0.0 0.0 0.00 0.00 0.00 63 1001.4
20260508181841 12 311 0.0 0.0 0.00 0.15 0.00 67 1001.2
20260508181830 13 82 0.0 0.0 0.00 0.15 0.00 62 1001.2
20260508181601 12 342 0.0 0.0 0.00 0.00 0.00 67 1001.4
20260508181059 12 111 0.0 0.0 0.00 0.00 0.00 66 1001.4
20260508180809 12 309 0.0 0.0 0.00 0.15 0.00 66 1001.3
20260508180556 11 283 0.0 0.0 0.00 0.00 0.00 69 1001.4
20260508180553 11 251 0.0 0.0 0.00 0.15 0.00 67 1001.4
20260508180052 11 26 0.0 0.0 0.00 0.00 0.00 68 1001.7
20260508175808 11 56 0.0 0.0 0.00 0.15 0.00 68 1001.4
20260508175549 11 183 0.0 0.0 0.00 0.00 0.00 67 1001.4
20260508175310 11 183 0.0 0.0 0.00 0.15 0.00 65 1001.4
20260508175046 11 297 0.0 0.0 0.00 0.00 0.00 65 1001.4
20260508174810 11 161 0.0 0.0 0.00 0.15 0.00 65 1001.4
20260508174544 11 338 0.0 0.0 0.00 0.00 0.00 66 1001.4
20260508174312 11 309 0.0 0.0 0.00 0.15 0.00 67 1001.6
20260508174040 11 28 0.0 0.0 0.00 0.00 0.00 66 1001.7
20260508173812 11 322 0.0 0.0 0.00 0.15 0.00 67 1001.5
20260508173537 11 338 0.0 0.0 0.00 0.00 0.00 68 1001.7
20260508173318 11 228 0.0 0.0 0.00 0.15 0.00 69 1001.6
20260508173033 11 261 0.0 0.0 0.00 0.00 0.00 69 1001.7
20260508172811 11 132 0.0 0.0 0.00 0.15 0.00 72 1001.5
20260508172531 11 155 0.0 0.0 0.00 0.00 0.00 70 1001.7
20260508172311 10 257 0.0 0.0 0.00 0.15 0.00 71 1001.5
20260508172027 10 315 0.0 0.0 0.00 0.00 0.00 73 1001.7
20260508171811 10 315 0.0 0.0 0.00 0.15 0.00 73 1001.5
20260508171524 10 264 0.0 0.0 0.00 0.00 0.00 74 1001.7
20260508171311 10 309 0.0 0.0 0.00 0.15 0.00 74 1001.6
20260508171020 10 120 0.0 0.0 0.00 0.00 0.00 72 1001.7
20260508170807 10 130 0.0 0.0 0.00 0.15 0.00 72 1001.7
20260508170517 10 291 0.0 0.0 0.00 0.00 0.00 74 1001.7
20260508170304 10 279 0.0 0.0 0.00 0.15 0.00 74 1001.7
20260508170015 10 203 0.0 0.0 0.00 0.00 0.00 78 1002.1
20260508165804 10 334 0.0 0.0 0.00 0.15 0.00 77 1001.7
20260508165512 10 318 0.0 0.0 0.00 0.00 0.00 76 1002.1
20260508165306 10 315 0.0 0.0 0.00 0.15 0.00 78 1001.8
20260508165009 10 240 0.0 0.0 0.00 0.00 0.00 79 1002.1
20260508164802 10 255 0.0 0.0 0.00 0.15 0.00 80 1001.9
20260508164536 10 143 0.0 0.0 0.00 0.15 0.00 82 1001.9
20260508164505 10 143 0.0 0.0 0.00 0.00 0.00 82 1002.1
20260508164002 10 141 0.0 0.0 0.00 0.00 0.00 83 1002.1
20260508163803 10 55 0.0 0.0 0.00 0.15 0.00 84 1001.8
20260508163538 10 302 0.0 6.4 0.00 0.15 0.00 87 1001.9
20260508163500 10 302 0.0 6.4 0.00 0.00 0.00 87 1002.1
20260508162955 9 69 1.6 6.4 0.00 0.00 0.00 88 1002.1
20260508162802 9 84 1.6 6.4 0.00 0.15 0.00 89 1001.9
20260508162543 8 315 1.6 4.8 0.00 0.15 0.00 89 1002.0
20260508162453 8 315 1.6 4.8 0.00 0.00 0.00 89 1002.1
20260508161949 8 310 1.6 9.7 0.00 0.00 0.00 90 1002.1
20260508161803 8 324 3.2 9.7 0.00 0.15 0.00 91 1001.9
20260508161540 8 84 1.6 9.7 0.00 0.15 0.00 91 1002.0
20260508161447 8 83 1.6 9.7 0.00 0.00 0.00 92 1002.1
20260508161031 7 252 1.6 6.4 0.00 0.15 0.00 92 1002.1
20260508160944 7 306 1.6 6.4 0.00 0.00 0.00 92 1002.1
20260508160443 7 83 1.6 9.7 0.00 0.00 0.00 92 1002.1
20260508160302 7 83 1.6 9.7 0.00 0.15 0.00 93 1002.1
20260508155938 7 76 1.6 9.7 0.00 0.00 0.00 93 1002.1
20260508155806 7 72 1.6 9.7 0.00 0.15 0.00 93 1002.2
20260508155536 7 280 1.6 4.8 0.00 0.15 0.00 94 1002.2
20260508155436 7 277 1.6 4.8 0.00 0.00 0.00 94 1002.4
20260508154932 6 46 0.0 4.8 0.00 0.00 0.00 94 1002.4
20260508154803 6 46 0.0 4.8 0.00 0.15 0.00 94 1002.3
20260508154430 6 292 0.0 4.8 0.00 0.00 0.00 94 1002.4
20260508154302 6 292 0.0 4.8 0.00 0.15 0.00 94 1002.3
20260508153926 6 289 0.0 3.2 0.00 0.00 0.00 94 1002.4
20260508153804 6 289 0.0 3.2 0.00 0.15 0.00 94 1002.4
20260508153424 6 287 0.0 3.2 0.00 0.00 0.00 93 1002.4
20260508153303 6 287 0.0 3.2 0.00 0.15 0.00 93 1002.4
20260508153038 5 298 0.0 3.2 0.00 0.15 0.00 93 1002.3
20260508152920 5 301 0.0 3.2 0.00 0.00 0.00 93 1002.4
20260508152417 5 301 0.0 3.2 0.00 0.00 0.00 93 1002.4
20260508152305 5 301 0.0 3.2 0.00 0.15 0.00 93 1002.4
20260508151913 5 316 0.0 3.2 0.00 0.00 0.00 93 1002.4
20260508151757 5 316 0.0 3.2 0.00 0.15 0.00 93 1002.3
20260508151410 5 316 0.0 3.2 0.00 0.00 0.00 93 1002.4
20260508151252 5 316 0.0 3.2 0.00 0.15 0.00 93 1002.3
20260508150906 5 321 0.0 1.6 0.03 0.00 0.00 93 1002.4
20260508150752 5 321 0.0 0.0 0.03 0.15 0.00 93 1002.1